OSTRACH Weather Reports


time (UTC)temp
C
wind
direction
speed
KPH
gust
KPH
rain 1hr
cm
rain 24hr
cm
rain mn
cm
humidity
%
barometer
mb
20260502163210 24 175 0.0 0.0 0.00 0.00 0.00 30 1015.0
20260502160213 24 175 0.0 0.0 0.00 0.00 0.00 28 1015.4
20260502150210 25 175 0.0 0.0 0.00 0.00 0.00 29 1016.0
20260502130210 24 198 1.6 0.0 0.00 0.00 0.00 27 1017.7
20260502123210 23 198 9.7 0.0 0.00 0.00 0.00 29 1017.9
20260502120210 23 198 3.2 0.0 0.00 0.00 0.00 34 1018.4
20260502113211 23 207 1.6 0.0 0.00 0.00 0.00 33 1018.9
20260502110210 22 201 4.8 0.0 0.00 0.00 0.00 34 1019.2
20260502103210 22 207 6.4 0.0 0.00 0.00 0.00 34 1019.5
20260502100210 21 209 6.4 0.0 0.00 0.00 0.00 42 1019.9
20260502090210 20 218 4.8 0.0 0.00 0.00 0.00 45 1020.5
20260502070213 10 75 0.0 0.0 0.00 0.00 0.00 66 1021.2
20260502063212 7 75 0.0 0.0 0.00 0.00 0.00 75 1021.3
20260502060210 4 75 0.0 0.0 0.00 0.00 0.00 86 1021.3
20260502053210 2 75 0.0 0.0 0.00 0.00 0.00 88 1021.3
20260502050211 2 75 0.0 0.0 0.00 0.00 0.00 87 1021.2
20260502043211 1 71 0.0 0.0 0.00 0.00 0.00 86 1021.1
20260502040212 1 71 0.0 0.0 0.00 0.00 0.00 85 1021.0
20260502033211 2 71 0.0 0.0 0.00 0.00 0.00 85 1021.1
20260502030211 2 71 0.0 0.0 0.00 0.00 0.00 83 1021.1
20260502023214 3 71 0.0 0.0 0.00 0.00 0.00 82 1021.1
20260502020212 3 71 0.0 0.0 0.00 0.00 0.00 81 1021.2
20260502013211 4 71 0.0 0.0 0.00 0.00 0.00 79 1021.3
20260502010211 5 71 0.0 0.0 0.00 0.00 0.00 77 1021.3
20260502003209 5 71 0.0 0.0 0.00 0.00 0.00 75 1021.4
20260502000211 5 71 0.0 0.0 0.00 0.00 0.00 74 1021.6
20260501233210 6 71 0.0 0.0 0.00 0.00 0.00 73 1021.7
20260501230210 6 71 0.0 0.0 0.00 0.00 0.00 72 1021.7
20260501223210 7 71 0.0 0.0 0.00 0.00 0.00 69 1021.8
20260501220211 8 71 0.0 0.0 0.00 0.00 0.00 66 1021.8
20260501213210 9 71 0.0 0.0 0.00 0.00 0.00 63 1021.9
20260501210210 10 71 0.0 0.0 0.00 0.00 0.00 58 1021.9
20260501203209 12 71 9.7 0.0 0.00 0.00 0.00 52 1021.9
20260501200211 13 27 0.0 0.0 0.00 0.00 0.00 49 1021.8
20260501193209 15 9 1.6 0.0 0.00 0.00 0.00 43 1021.6
20260501190210 17 5 1.6 0.0 0.00 0.00 0.00 37 1021.4
20260501183210 18 39 3.2 0.0 0.00 0.00 0.00 35 1021.2
20260501180210 20 355 8.0 0.0 0.00 0.00 0.00 32 1021.1
20260501173211 21 19 14.5 0.0 0.00 0.00 0.00 29 1020.9
20260501170210 21 28 19.3 0.0 0.00 0.00 0.00 27 1020.9